Date,TemperatureHighF,TemperatureAvgF,TemperatureLowF,DewpointHighF,DewpointAvgF,DewpointLowF,HumidityHigh,HumidityAvg,HumidityLow,PressureMaxIn,PressureMinIn,WindSpeedMaxMPH,WindSpeedAvgMPH,GustSpeedMaxMPH,PrecipitationSumIn
2013-3-1,36,34,30,35,32,25,98,91,81,30.13,30.02,14,2,30,0.05
2013-3-2,30,28,27,25,23,22,89,81,76,30.19,30.12,10,2,18,0.01
2013-3-3,31,28,23,26,23,19,90,81,71,30.20,30.15,9,1,12,0.00
2013-3-4,43,36,19,28,24,17,94,63,45,30.28,30.10,14,3,18,0.01
2013-3-5,39,36,31,38,34,27,98,92,65,30.11,29.65,18,4,26,0.38
2013-3-6,33,32,28,31,30,28,98,93,90,30.35,29.73,0,0,0,0.05
2013-3-7,39,35,31,33,32,30,96,87,80,30.48,30.35,9,1,0,0.33
2013-3-8,43,37,26,29,27,24,90,68,51,30.58,30.47,16,2,16,0.02
2013-3-9,32,31,31,28,28,27,87,86,84,30.49,30.45,4,0,0,0.00
2013-3-10,69,62,53,43,37,34,52,41,31,30.13,29.90,15,6,42,0.01
2013-3-11,64,48,38,53,44,33,97,87,36,29.93,29.66,32,8,36,1.51
2013-3-12,40,36,35,34,31,29,84,81,79,30.05,29.92,14,4,28,0.00
2013-3-13,37,31,27,32,26,21,94,82,69,30.41,30.10,8,4,30,0.03
2013-3-14,45,38,22,24,21,17,90,53,36,30.48,30.27,15,3,16,0.00
2013-3-15,54,41,31,40,33,22,91,75,57,30.30,29.87,15,2,10,0.00
2013-3-16,62,48,38,54,44,34,95,85,67,30.10,29.69,18,4,18,0.25
2013-3-17,38,35,33,34,32,29,95,86,81,30.23,30.08,20,5,20,0.05
2013-3-18,49,43,34,49,42,32,99,95,88,30.11,29.72,20,6,32,1.01
2013-3-19,46,40,30,38,22,16,89,50,32,30.20,29.91,33,8,36,0.00
2013-3-20,40,33,26,24,19,14,73,56,43,30.20,30.03,26,4,28,0.00
2013-3-21,33,28,21,18,15,10,78,57,45,30.16,30.05,12,2,28,0.00
2013-3-22,45,32,21,24,18,15,82,60,34,30.20,30.09,14,1,20,0.00
2013-3-23,52,38,30,28,24,20,77,58,34,30.16,29.97,12,2,20,0.00
2013-3-24,42,35,32,34,30,25,97,83,57,30.01,29.48,27,6,27,0.17
2013-3-25,35,33,30,33,32,30,98,96,91,30.02,29.51,18,3,22,0.29
2013-3-26,40,36,32,34,31,28,96,81,66,30.33,30.02,16,3,16,0.16
2013-3-27,44,39,30,32,29,26,88,66,53,30.41,30.33,21,3,21,0.16
2013-3-28,35,35,35,26,26,25,68,68,68,30.40,30.39,0,0,14,0.00
2013-3-29,56,43,27,34,30,25,93,64,37,30.42,30.28,4,1,22,0.00
2013-3-30,61,53,32,37,35,29,90,52,36,30.33,30.02,16,2,22,0.00
2013-3-31,57,50,46,48,44,37,97,80,60,30.02,29.85,21,2,21,0.04